星链-1752 (STARLINK-1752 )

导读

STARLINK-1752是美国SpaceX公司星链(Starlink)计划中的一颗卫星,于2020年9月3日发射升空,属于星链低轨互联网卫星星座组网的组成部分,运行在近地轨道。星链项目旨在构建全球卫星互联网,为全球尤其是偏远地区提供高速宽带网络服务,STARLINK-1752服役至今,承担着星座组网的通信传输任务,推进全球互联网覆盖范围拓展。

基本信息
目录编号:
46338
目录名称:
STARLINK-1752
国际标识:
2020-062P
轨道中心:
EARTH
卫星名称:
星链-1752
卫星全名:
星链-1752 (STARLINK-1752 )
卫星状态:
已陨落 最后检测时间 2026-03-29
发射日期:
2020-09-03 UTC
国别 :
美国 (US)
星等 :
--
轨道信息
数据来源 国际轨道数据
星历时间: 2026-03-29T04:00:28+0800
轨道信息已过期82天
半长轴: 6540.409km
偏心率: 0.000887
轨道倾角: 53.020°
近地点辐角 297.261°
升交点赤经 227.385°
平近点角 62.753°
近地点: 156.47km
远地点: 168.074km
周期: 87.734分钟
每日圈数: 16.413281
详细信息
固有亮度:
5
最大亮度:
2.5
卫星平台:
Starlink V1.0
覆盖范围:
全球
运营商:
太空探索技术公司
运营商所在国:
美国
制造商(研发单位):
太空探索技术公司
制造商所在国:
美国
使用方式:
暂无
卫星简介
星链(Starlink)计划是由太空探索技术公司(SpaceX)提出的一个巨型低轨卫星互联网星座项目,计划在2019年至2024年间在太空搭建由约1.2万颗卫星组成的“星链”网络,其中1584颗将部署在地球上空550千米处的近地轨道,并从2020年开始工作。该卫星仍在工作。